Retour au catalogue

ISS

UNITY

ActifScienceVLEO
NORAD 25575·PAYLOAD·🇺🇸 United States

Lancé Dec 4, 1998 depuis Cape Canaveral Space Force Station

Loading…

Prochains Passages (prochaines 24 heures)

TLE

FraisSource: Space-Track

Époque: Sep 14, 2026, 08:04 UTC

1 25575U 98069F   26257.33674862  .00004921  00000-0  97059-4 0  9997
2 25575  51.6309 218.8707 0004933 140.1115 220.0237 15.49109585586344

Suivez ISS en temps réel avec AllMySat

Download on the App Store